Regional Weather Roundup
Issued by NWS Kansas City/Pleasant Hill, MO

Home | Current Version | Previous Version | Graphics & Text | Print | Product List | Glossary Off
Versions: 1 2 3 4 5 6 7 8 9 10 11 12 13 14 15 16 17 18 19 20 21 22 23 24 25 26 27 28 29 30 31 32 33 34 35 36 37 38 39 40 41 42 43 44 45 46 47 48 49 50

000
ASUS43 KEAX 041804
RWREAX

WEATHER ROUNDUP FOR EASTERN KANSAS AND NORTHWEST MISSOURI
NATIONAL WEATHER SERVICE KANSAS CITY/PLEASANT HILL MO
1200 PM CST WED MAR 04 2015

KSZ040-057-103>105-MOZ028-029-037-043-041900-
...KANSAS CITY METROPOLITAN AREA...

CITY           SKY/WX    TMP DP  RH WIND       PRES   REMARKS
K.C. INTL      CLOUDY    25   6  44 N14       30.30F WCI  13
6HR MIN TEMP:  18; 6HR MAX TEMP:  25; 6HR PCP: TRACE;

K.C. DOWNTOWN  CLOUDY    26   4  38 N17       30.31F WCI  13
6HR MIN TEMP:  21; 6HR MAX TEMP:  27; 6HR PCP: TRACE;

LEES SUMMIT    CLOUDY    24   6  46 N15       30.30S WCI  11
6HR MIN TEMP:  18; 6HR MAX TEMP:  24; 6HR PCP: TRACE;

OLATHE - IXD   CLOUDY    24   9  52 N16       30.32R WCI  11
6HR MIN TEMP:  18; 6HR MAX TEMP:  25; 6HR PCP: TRACE;

OLATHE - OJC   CLOUDY    24   7  48 N18       30.30R WCI  10
6HR MIN TEMP:  18; 6HR MAX TEMP:  24; 6HR PCP: TRACE;

LAWRENCE       FAIR      25   6  44 N15G23    30.34R WCI  13

$$

MOZ001>008-011>017-020>025-030>033-038>040-044>046-053-054-041900-
...NORTHERN AND CENTRAL MISSOURI...

CITY           SKY/WX    TMP DP  RH WIND       PRES   REMARKS
ST. JOSEPH     FAIR      26   5  40 N10       30.33F WCI  16
6HR MIN TEMP:  18; 6HR MAX TEMP:  26;

MOSBY          FAIR      27   1  33 N16G22    30.31F WCI  14
WARRENSBURG    CLOUDY    27   9  46 N14       30.30F WCI  15
WHITEMAN AFB   PTSUNNY   23   7  50 N21       30.28R WCI   8
6HR MIN TEMP:  19; 6HR MAX TEMP:  23; 6HR PCP: TRACE;

CLINTON        PTSUNNY   25  12  58 N14       30.29S WCI  13
SEDALIA        CLOUDY    23   8  52 N14       30.29S WCI  11
6HR MIN TEMP:  20; 6HR MAX TEMP:  23; 6HR PCP:  0.01;

WARSAW         NOT AVBL
MARSHALL       CLOUDY    25  10  54 N14       30.30S WCI  13
CHILLICOTHE      N/A     25   5  42 N12G17    30.33R WCI  14
6HR MIN TEMP:  19; 6HR MAX TEMP:  26;

MOBERLY        PTSUNNY   23   5  46 N15       30.28S WCI  10
KIRKSVILLE     NOT AVBL

$$

MOZ041-047>049-056>058-063>065-088>090-097-041900-
...EASTERN AND SOUTHERN MISSOURI...

CITY           SKY/WX    TMP DP  RH WIND       PRES   REMARKS
ST. LOUIS INTL CLOUDY    23   7  50 N10       30.26R WCI  12
6HR MIN TEMP:  20; 6HR MAX TEMP:  29; 6HR PCP: TRACE;

SPIRIT OF STL  CLOUDY    22   5  48 N12       30.26R WCI  10
COLUMBIA       CLOUDY    21   7  54 N14       30.27R WCI   8
JEFFERSON CITY CLOUDY    22   4  46 N14       30.30F WCI   9
MEXICO         CLOUDY    23  10  58 N14G21    30.26  WCI  11
ROLLA          LGT SNOW  19  11  70 N15G23    30.22R WCI   5
OSAGE BEACH    CLOUDY    23   9  54 N7        30.26R WCI  15
SPRINGFIELD    LGT SNOW  22  17  81 N22G28    30.18F WCI   6
JOPLIN         LGT SNOW  23  15  71 N17G24    30.24S WCI   9
WEST PLAINS    LGT SNOW  23  18  81 N17G28    30.12R WCI   9

$$

IAZ060-094-KSZ022-034>040-054-083-096-NEZ052-066-093-041900-
...KANSAS...SOUTHEAST NEBRASKA AND IOWA...

CITY           SKY/WX    TMP DP  RH WIND       PRES   REMARKS
TOPEKA         FAIR      27   7  42 N13G22    30.34R WCI  16
6HR MIN TEMP:  20; 6HR MAX TEMP:  27; 6HR PCP: TRACE;

MANHATTAN      FAIR      29   4  34 N12G22    30.34R WCI  19
EMPORIA        CLOUDY    24  10  55 N17       30.31R WCI  11
CHANUTE        FLURRIES  23  14  68 NE17G24   30.29R WCI   9
WICHITA        CLOUDY    24  12  60 N13       30.33R WCI  12
OMAHA          FAIR      31   2  29 NW20G28   30.28F WCI  19
LINCOLN        FAIR      28  11  48 N20       30.30F WCI  15
FALLS CITY     MIX PCPN  27   4  37 NW10G23   30.32F WCI  17
LAMONI         FAIR      24   7  48 NW18      30.27F WCI  10
DES MOINES     PTSUNNY   22   4  46 NW13      30.29F WCI  10

$$



USA.gov is the U.S. government's official web portal to all federal, state and local government web resources and services.